Terug naar catalogus

STARLINK-33686

ActiefCommunicatieVLEO
NORAD 63422·PAYLOAD·🇺🇸 United States

Gelanceerd Mar 31, 2025 vanaf Cape Canaveral Space Force Station

Loading…

Volgende Passages (komende 24 uur)

TLE

VersSource: CelesTrak SupGP

Epoch: Sep 15, 2026, 02:50 UTC

1 63422C 25065Z   26258.11854167  .00055964  00000+0  20270-2 0  2580
2 63422  43.0016 117.3141 0001868 274.9084 298.7630 15.27549336    19

Volg STARLINK-33686 in realtime met AllMySat

Download on the App Store